Retour au catalogue

COSMOS 1554

GLONASS

ActifNavigationMEO
NORAD 14977·PAYLOAD·🇷🇺 Russia

Lancé May 19, 1984 depuis Baikonur Cosmodrome

Loading…

Prochains Passages (prochaines 24 heures)

TLE

FraisSource: Space-Track

Époque: Sep 13, 2026, 05:54 UTC

1 14977U 84047A   26256.24598661 -.00000066  00000-0  00000+0 0  9995
2 14977  66.3264 325.2610 0018984 214.5082 140.3950  2.13100727105751

Suivez COSMOS 1554 en temps réel avec AllMySat

Download on the App Store